Location: Unspecified
(49.2170°N, 0.0000°E)
Time: 08:57:40
(UTC+00:00)

SR - All Passes

Search period start: 19 June 2019 00:00
Search period end: 29 June 2019 00:00
Orbit: 582 x 874 km, 66.7° (Epoch: 18 June)

Date Brightness Start Highest point End Pass type
(mag) Time Alt. Az. Time Alt. Az. Time Alt. Az.
19 Jun - 03:57:45 10° S 04:01:30 31° ESE 04:05:20 10° NE daylight
19 Jun - 05:39:29 10° WSW 05:43:27 37° NW 05:47:32 10° NNE daylight
19 Jun - 07:25:13 10° NW 07:26:49 12° NNW 07:28:25 10° N daylight
19 Jun - 10:51:43 10° NNW 10:55:02 19° NNE 10:58:31 10° ENE daylight
19 Jun - 12:33:03 10° NNW 12:37:49 74° NE 12:43:00 10° SE daylight
19 Jun - 14:15:59 10° WNW 14:19:27 19° WSW 14:23:04 10° SSW daylight
20 Jun - 03:09:39 10° SE 03:12:13 16° ESE 03:14:49 10° ENE visible
20 Jun - 04:49:28 10° SW 04:53:40 68° NW 04:58:03 10° NNE daylight
20 Jun - 06:33:51 10° WNW 06:36:35 16° NNW 06:39:21 10° N daylight
20 Jun - 10:02:32 10° N 10:04:51 13° NNE 10:07:14 10° NE daylight
20 Jun - 11:43:33 10° NNW 11:48:04 43° NE 11:52:57 10° ESE daylight
20 Jun - 13:25:40 10° NW 13:30:05 35° WSW 13:34:49 10° S daylight
21 Jun - 03:59:55 10° SSW 04:04:05 61° ESE 04:08:22 10° NE daylight
21 Jun - 05:43:00 10° W 05:46:29 24° NW 05:50:05 10° NNE daylight
21 Jun - 09:13:47 10° N 09:14:32 10° NNE 09:15:18 10° NNE daylight
21 Jun - 10:54:09 10° NNW 10:58:10 27° NE 11:02:28 10° E daylight
21 Jun - 12:35:48 10° NW 12:40:34 65° WSW 12:45:46 10° SSE daylight
21 Jun - 14:21:01 10° W 14:21:51 10° WSW 14:22:43 10° WSW daylight
22 Jun - 03:10:58 10° S 03:14:39 30° ESE 03:18:25 10° NE visible
22 Jun - 04:52:33 10° WSW 04:56:33 39° NW 05:00:42 10° NNE daylight
22 Jun - 06:38:08 10° NW 06:39:53 12° NNW 06:41:39 10° N daylight
22 Jun - 10:04:51 10° NNW 10:08:08 18° NNE 10:11:34 10° ENE daylight
22 Jun - 11:46:10 10° NNW 11:50:57 71° NE 11:56:10 10° SE daylight
22 Jun - 13:29:00 10° WNW 13:32:37 21° WSW 13:36:25 10° SSW daylight
23 Jun - 02:23:00 10° SE 02:25:24 15° ESE 02:27:49 10° ENE visible
23 Jun - 04:02:33 10° SW 04:06:48 73° NW 04:11:11 10° NNE daylight
23 Jun - 05:46:50 10° WNW 05:49:39 17° NNW 05:52:33 10° NNE daylight
23 Jun - 09:15:40 10° N 09:17:56 13° NNE 09:20:16 10° NE daylight
23 Jun - 10:56:40 10° NNW 11:01:11 41° NE 11:06:04 10° ESE daylight
23 Jun - 12:38:45 10° NW 12:43:14 37° WSW 12:48:04 10° S daylight
24 Jun - 03:13:04 10° SSW 03:17:12 57° ESE 03:21:30 10° NE visible
24 Jun - 04:56:01 10° W 04:59:34 25° NW 05:03:15 10° NNE daylight
24 Jun - 08:26:57 10° N 08:27:36 10° NNE 08:28:17 10° NNE daylight
24 Jun - 10:07:17 10° NNW 10:11:17 26° NE 10:15:32 10° E daylight
24 Jun - 11:48:54 10° NW 11:53:43 69° WSW 11:58:58 10° SSE daylight
24 Jun - 13:33:31 10° W 13:35:02 11° WSW 13:36:34 10° WSW daylight
25 Jun - 02:24:11 10° S 02:27:48 28° ESE 02:31:30 10° NE visible
25 Jun - 04:05:37 10° WSW 04:09:39 41° NW 04:13:51 10° NNE daylight
25 Jun - 05:51:04 10° NW 05:52:57 12° NNW 05:54:53 10° N daylight
25 Jun - 09:17:59 10° NNW 09:21:13 18° NNE 09:24:37 10° ENE daylight
25 Jun - 10:59:17 10° NNW 11:04:05 68° NE 11:09:18 10° SE daylight
25 Jun - 12:42:02 10° WNW 12:45:47 22° WSW 12:49:45 10° SSW daylight
26 Jun - 01:36:21 10° SE 01:38:33 14° ESE 01:40:47 10° ENE visible
26 Jun - 03:15:40 10° SW 03:19:54 77° NW 03:24:20 10° NE daylight
26 Jun - 04:59:49 10° WNW 05:02:44 17° NNW 05:05:44 10° NNE daylight
26 Jun - 08:28:48 10° N 08:31:00 13° NNE 08:33:17 10° NE daylight
26 Jun - 10:09:48 10° NNW 10:14:18 40° NE 10:19:11 10° ESE daylight
26 Jun - 11:51:49 10° NW 11:56:24 40° WSW 12:01:19 10° S daylight
27 Jun - 02:26:13 10° SSW 02:30:21 53° ESE 02:34:37 10° NE visible
27 Jun - 04:09:03 10° W 04:12:39 26° NW 04:16:25 10° NNE daylight
27 Jun - 07:40:06 10° N 07:40:40 10° NNE 07:41:15 10° NNE daylight
27 Jun - 09:20:24 10° NNW 09:24:23 25° NE 09:28:37 10° E daylight
27 Jun - 11:02:00 10° NW 11:06:52 73° WSW 11:12:09 10° SSE daylight
27 Jun - 12:46:16 10° W 12:48:13 12° WSW 12:50:13 10° SW daylight
28 Jun - 01:37:24 10° S 01:40:57 26° ESE 01:44:35 10° NE visible
28 Jun - 03:18:41 10° WSW 03:22:45 43° NW 03:27:01 10° NNE daylight
28 Jun - 05:03:59 10° NW 05:06:01 13° NNW 05:08:06 10° N daylight
28 Jun - 08:31:07 10° NNW 08:34:19 18° NNE 08:37:39 10° ENE daylight
28 Jun - 10:12:24 10° NNW 10:17:13 64° NE 10:22:28 10° SE daylight
28 Jun - 11:55:03 10° WNW 11:58:57 23° WSW 12:03:05 10° SSW daylight
